www.pogodaiklimat.ru

Погода и климат >> Архив погоды >> Россия >> Коми >> Кедва-Вом


ПОГОДА в Кедва-Воме

  • Прогноз погоды в Кедва-Воме
  • Монитор погоды в Кедва-Воме

АРХИВ ПОГОДЫ в Кедва-Воме

Время (UTC), дата Ветер
(напр.,м/с)
 
Видим.   Явления Облачность Т
(С)
Тd
(С)
f
(%)
Тe
(С)
Тes
(С)
Комфортность P
(гПа)
Po
(гПа)
Тmin
(С)
Tmax
(С)
R
(мм)
R24
(мм)
S
(см)
03 16.09 Ю 4
{11}
20 км в посл. час дождь 10/8 540 м
[Sc As op]
+5.6 +3.1 84 +2 +2 989.6 982.0 +5.5 2
06 16.09 Ю 5-10
{11}
20 км {ливн. осадки, дождь} 9/9 540 м
[Cb cap]
+7.7 +4.1 78 +4 +4 990.2 982.7
09 16.09 ЮЗ 4
{13}
20 км 10/10 630 м
[Cb cap]
+9.6 +2.9 63 +7 +7 991.0 983.6
12 16.09 Ю 3 20 км 9/9 570 м
[Cb cap]
+11.1 +1.9 53 +10 +10 991.1 983.7
15 16.09 Ю 2 20 км 9/9 600 м
[Cb cap]
+9.2 +2.9 65 +8 +8 991.1 983.7 +11.7 0.0
03 17.09 штиль 0 20 км {дождь} 10/10 500 м
[Sc]
+6.9 +5.7 92 +6 +6 987.6 980.2 +6.2 0.4
06 17.09 Ю 3 4000 м слаб. дождь 10/8 500 м
[Sc As op]
+8.4 +6.6 88 +6 +6 987.6 980.2
09 17.09 Ю 3 20 км {дождь} 9/9 750 м
[Sc]
+10.6 +6.3 75 +9 +9 988.1 980.7
12 17.09 Ю 3 20 км {дождь} 8/4 600 м
[Cb cap Ac trans]
+10.8 +5.1 68 +9 +10 988.9 981.5
15 17.09 Ю 1 20 км {ливн. осадки} 8/4 600 м
[Cb cap Ac trans Ci fib]
+8.2 +6.6 90 +7 +7 989.5 982.1 +11.7 2
03 18.09 С 1 1000 м туман ?/? +6.2 +5.6 96 +5 +5 990.7 983.2 +5.4
06 18.09 СЗ 3 20 км {туман} 9/9 360 м
[Cb cap]
+7.9 +6.2 89 +5 +5 991.4 984.0
09 18.09 СЗ 3 20 км {ливн. осадки} 10/9 400 м
[Cb cap Ci ing]
+8.3 +5.2 81 +6 +6 992.8 985.4
12 18.09 СЗ 3 20 км {ливн. осадки} 10/8 400 м
[Cb cap Ci ing]
+6.8 +3.9 82 +4 +4 995.0 987.5
15 18.09 СЗ 2 20 км 10/0
[Ac As]
+5.7 +1.6 75 +3 +3 997.0 989.4 +9.2 0.0
03 19.09 штиль 0 20 км 6/3 600 м
[Sc Ci fib]
-1.6 -2.1 96 -3 -3 999.2 991.4 -1.7
06 19.09 С 1 20 км 9/9 480 м
[Cb cap]
+3.9 +1.1 82 +3 +3 999.3 991.6
09 19.09 С 2 20 км 8/8 540 м
[Cb cap]
+6.4 -0.1 63 +4 +5 999.7 992.1
12 19.09 СЗ 4 20 км {ливн. осадки} 5/5 600 м
[Cb cap]
+6.7 -0.3 61 +3 +4 1000.2 992.6
15 19.09 СЗ 1 20 км 3/0
[Ac trans]
+3.0 -0.1 80 +2 +2 1001.2 993.5 +7.7 0.0
03 20.09 З 1 20 км 9/9 630 м
[Sc]
+0.5 -0.2 95 -2 -2 1003.5 995.8 -2.6
06 20.09 З 2 20 км {ливн. осадки} 10/10 500 м
[Cb cap]
+2.9 +0.9 87 -0 -0 1004.2 996.5
09 20.09 З 3 20 км {ливн. осадки, снег} 6/6 540 м
[Cb cap]
+5.0 +0.4 72 +2 +3 1004.8 997.1
12 20.09 ЮЗ 2 20 км {ливн. осадки, снег} 6/6 480 м
[Cb cap]
+5.4 0.0 68 +3 +4 1005.4 997.8
15 20.09 ЮЗ 2 20 км {ливн. осадки} 8/0
[Ac trans]
+2.9 0.0 81 -0 -0 1006.0 998.3 +6.3 0.5
03 21.09 Ю 2 20 км 10/0
[As op]
+1.1 -0.2 91 -2 -2 1004.5 996.8 -0.2
06 21.09 Ю 2 20 км 10/10 300 м
[St]
+1.8 -0.1 87 -2 -2 1004.0 996.3
09 21.09 Ю 3 20 км 10/8 570 м
[Sc As op]
+3.5 +0.2 79 -0 -0 1003.1 995.4
12 21.09 Ю 3 20 км 9/9 500 м
[Cb cap]
+4.9 +0.3 72 +2 +2 1002.4 994.8
15 21.09 Ю 2 20 км 6/5 600 м
[Sc Ac trans]
+2.7 -0.6 79 -0 -0 1001.7 994.0 +5.1
03 22.09 ЮВ 1 20 км 10/10 210 м
[St]
+0.3 -0.6 94 -2 -2 999.1 991.4 +0.2 0.0
06 22.09 ЮВ 1 20 км 10/10 420 м
[Sc]
+1.7 +0.1 89 -0 -0 999.0 991.3
09 22.09 С 1 20 км 8/8 540 м
[Cb cap]
+4.7 -1.1 66 +4 +5 998.3 990.7
12 22.09 СВ 2 20 км 9/9 500 м
[Cb cap]
+4.3 -0.9 69 +2 +2 998.5 990.8
15 22.09 СЗ 1 20 км 10/8 630 м
[Sc As op]
+2.8 -0.5 79 +1 +1 998.4 990.7 +5.3

 

Местоположение метеостанции Кедва-Вом (Коми, Россия): широта 64.22 долгота 53.57 высота над уровнем моря 62 м.

В архиве по умолчанию представлена погода в Кедва-Воме за последнюю неделю. Архивные данные за месяц целиком и за предыдущие месяцы, начиная с января 2011 года, Вы можете получить, выбрав интересующий диапазон дат из раскрывающегося списка и нажав кнопку "Ввод!".


*Определитесь, кто Вы:
робот инопланетянин человек

Внимание! Время в таблицах - всемирное. Для получения местного времени необходимо прибавить поправку, которая равна 3 ч.

Смотрите также архив погоды в соседних городах и на ближайших метеорологических станциях:

Погода в Ухте (Коми, Россия) (76 км)
Погода в Ижме (Коми, Россия) (88 км)
Погода в Ираеле (Коми, Россия) (94 км)
Погода в Усть-Цильме (Коми, Россия) (148 км)
Погода в Вуктыле (Коми, Россия) (188 км)
Погода в Весляне (Коми, Россия) (191 км)
Погода в Печоре (Коми, Россия) (196 км)
Погода в Усть-Щугоре (Коми, Россия) (196 км)
Погода в Мутном Материке (Коми, Россия) (206 км)
Погода в Троицко-Печорском (Коми, Россия) (214 км)

Пояснения к столбцам:

Ветер - указаны скорость ветра в м/с - средняя за 10 мин, порывы в срок и между сроками (в фигурных скобках) и направление, откуда дует ветер: С - северный, СВ - северо-восточный, В - восточный, ЮВ - юго-восточный, Ю - южный, ЮЗ - юго-западный, З - западный, СЗ - северо-западный.
Видимость - горизонтальная дальность видимости в метрах или километрах. При видимости от 1 до 10 км при отсутствии осадков обычно наблюдается дымка, при ухудшении видимости до 1 км и менее - туман. В сухую погоду видимость может ухудшаться дымом, пылью или мглою.
Явления - указаны атмосферные явления, наблюдавшиеся в срок или в последний час перед сроком; фигурными скобками обозначены явления, наблюдавшиеся между сроками (за 1-3 часа до срока); квадратными скобками обозначены град или гололедные отложения с указанием их диаметра в мм.
Облачность - указаны через наклонную черту общая и нижняя облачность в баллах и высота нижней границы облаков в метрах; квадратными скобками обозначены формы облаков: Ci - перистые, Cs - перисто-слоистые, Cc - перисто-кучевые, Ac - высококучевые, As - высокослоистые, Sc - слоисто-кучевые, Ns - слоисто-дождевые, Cu - кучевые, Cb - кучево-дождевые. Подробнее классификацию облаков см. в Атласе облаков (PDF).
T - Температура воздуха - температура, измеренная на высоте 2 м над землей.
Td - Температура точки росы - температура, при понижении до которой содержащийся в воздухе водяной пар достигнет насыщения.
f - Относительная влажность воздуха - влажноcть воздуха, измеренная на высоте 2 м над землей.
Te - Эффективная температура - температура, которую ощущает одетый по сезону человек в тени. Характеристика душности погоды. При расчете учитывается влияние влажности воздуха и скорости ветра на теплоощущения человека.
Tes - Эффективная температура на солнце - температура, которую ощущает человек, с поправкой на солнечный нагрев. Характеристика знойности погоды. Зависит от высоты солнца над горизонтом, облачности и скорости ветра. Ночью, в пасмурную погоду, а также при ветре 12 м/с и более поправка равна нулю.
P - Атмосферное давление - приведенное к уровню моря атмосферное давление.
Po - Атмосферное давление - измеренное на уровне метеостанции атмосферное давление.
Tmin - Минимальная температура - минимум температуры воздуха на высоте 2 м над землей.
Tmax - Максимальная температура - максимум температуры воздуха на высоте 2 м над землей.
R - Количество осадков - Количество выпавших осадков за период времени, мм. При наведении курсора мыши на число - период времени, за который выпало указанное количество осадков.
R24 - Количество осадков - Количество выпавших осадков за 24 часа, мм.
S - Снежный покров - Высота снежного покрова, см. При наведении курсора мыши на число - состояние снежного покрова и степень покрытия местности в баллах.